Weather reports worldwide

Advertisment
Gourette, France (7775): temperature & dewpoint: 11.10.2018 08:00:00 - 17.10.2018 08:00:00 (CEST)Gourette, France (7775): wind speed & gusts: 11.10.2018 08:00:00 - 17.10.2018 08:00:00 (CEST)Gourette, France (7775): wind direction: 11.10.2018 08:00:00 - 17.10.2018 08:00:00 (CEST)Gourette, France (7775): reduced air pressure: 11.10.2018 08:00:00 - 17.10.2018 08:00:00 (CEST)Gourette, France (7775): visibility: 11.10.2018 08:00:00 - 17.10.2018 08:00:00 (CEST)Gourette, France (7775): precipitation: 11.10.2018 08:00:00 - 17.10.2018 08:00:00 (CEST)
Date & Time tt [°C] td [°C] ff [km/h] ff [kn] fx [km/h] fx [kn] dd ppp [hPa] vv [km] rr [mm]
17.10.2018 08:00:00 18,1 17,8 18 10 30 16 N 1015,0 6 7,5
17.10.2018 07:00:00 18,2 17,9 13 7 36 19 NE 1015,4 - 15,7
17.10.2018 06:00:00 17,8 17,3 20 11 31 17 NW 1015,1 - 14,1
17.10.2018 05:00:00 18,2 16,9 19 10 24 13 NNW 1015,1 - 1,2
17.10.2018 04:00:00 18,2 15,8 20 11 23 13 NNW 1015,3 - 0,0
17.10.2018 03:00:00 19,6 14,8 10 5 18 10 NW 1015,9 - 0,0
17.10.2018 02:00:00 18,3 15,9 16 9 19 10 NW 1016,2 - 0,0
17.10.2018 01:00:00 18,4 15,6 13 7 16 9 NNW 1016,5 - 0,0
17.10.2018 00:00:00 18,5 16,3 13 7 16 9 NNW 1016,7 - 0,0
16.10.2018 23:00:00 18,6 16,9 15 8 18 10 NW 1017,1 - 0,0
16.10.2018 22:00:00 18,7 16,8 7 4 11 6 NW 1016,9 - 0,0
16.10.2018 21:00:00 19,5 18,5 4 2 11 6 NNW 1016,6 - 0,0
16.10.2018 20:00:00 19,6 18,8 3 2 9 5 WNW 1016,6 15 0,0
16.10.2018 19:00:00 19,7 18,7 6 3 22 12 SSE 1016,2 - 0,0
16.10.2018 18:00:00 19,8 18,8 16 9 37 20 E 1015,8 - 0,0
16.10.2018 17:00:00 19,8 18,8 31 17 49 26 E 1015,6 - 0,0
16.10.2018 16:00:00 19,6 18,8 34 18 57 31 E 1015,2 - 0,0
16.10.2018 15:00:00 19,5 19,0 34 18 55 30 E 1014,9 - 0,4
16.10.2018 14:00:00 19,4 19,1 37 20 56 31 E 1015,0 12 12,7
16.10.2018 13:00:00 19,0 18,3 16 8 24 13 NNW 1015,9 - 3,1
16.10.2018 12:00:00 18,3 17,8 13 7 17 9 NNW 1016,5 - 3,2
16.10.2018 11:00:00 17,8 17,3 7 4 25 13 N 1016,3 15 8,5
16.10.2018 10:00:00 17,6 17,0 15 8 25 14 NNW 1016,3 - 1,3
16.10.2018 09:00:00 17,4 16,8 18 10 26 14 NW 1016,1 - 3,4
16.10.2018 08:00:00 17,1 16,5 16 9 25 13 NNW 1015,8 - 1,6
16.10.2018 07:00:00 16,6 16,1 15 8 21 11 NNW 1015,9 - 11,4
16.10.2018 06:00:00 17,6 15,0 15 8 27 14 NNW 1015,3 - 1,6
16.10.2018 05:00:00 18,6 15,5 15 8 21 11 N 1015,2 - 0,0
16.10.2018 04:00:00 19,0 14,9 14 8 18 10 NNW 1015,4 - 0,0
16.10.2018 03:00:00 19,1 13,7 12 7 14 8 NNW 1016,0 - 0,0
16.10.2018 02:00:00 19,2 13,4 7 4 10 6 N 1016,3 - 0,0
16.10.2018 01:00:00 19,6 13,5 4 2 5 3 NNE 1016,5 - 0,0
16.10.2018 00:00:00 19,4 14,4 0 0 6 4 N 1016,6 - 0,0
15.10.2018 23:00:00 19,3 14,3 5 3 8 5 SSW 1016,8 - 0,0
15.10.2018 22:00:00 19,3 15,2 8 4 10 5 SW 1016,5 - 0,0
15.10.2018 21:00:00 19,5 15,4 7 4 9 5 W 1016,3 - 0,0
15.10.2018 20:00:00 19,3 15,6 6 3 10 6 W 1016,2 15 0,0
15.10.2018 19:00:00 19,3 15,4 8 5 10 6 WSW 1016,2 - 0,0
15.10.2018 18:00:00 20,6 15,8 5 3 15 8 SE 1015,6 - 0,0
15.10.2018 17:00:00 20,8 15,3 8 5 15 8 ESE 1015,3 - 0,0
15.10.2018 16:00:00 22,0 16,5 8 4 19 10 ESE 1015,2 - 0,0
15.10.2018 15:00:00 22,6 16,2 10 5 20 11 ESE 1015,1 - 0,0
15.10.2018 14:00:00 21,9 16,2 9 5 15 8 SE 1015,4 15 0,0
15.10.2018 13:00:00 23,0 15,8 8 4 18 10 SE 1015,6 - 0,0
15.10.2018 12:00:00 22,5 16,5 11 6 18 10 SE 1016,1 - 0,0
15.10.2018 11:00:00 23,0 15,1 9 5 15 8 SSE 1016,0 15 0,0
15.10.2018 10:00:00 21,4 17,0 6 4 10 6 SW 1015,8 - 0,0
15.10.2018 09:00:00 19,4 16,1 4 2 8 5 W 1015,6 - 0,0
15.10.2018 08:00:00 18,4 15,3 2 1 7 4 WSW 1015,3 15 0,0
15.10.2018 07:00:00 17,6 13,7 7 4 8 4 WSW 1015,3 - 0,0
15.10.2018 06:00:00 18,3 13,2 5 3 7 4 WSW 1015,2 - 0,0
15.10.2018 05:00:00 18,4 13,3 0 0 4 2 N 1015,2 15 0,0
15.10.2018 04:00:00 18,7 12,7 0 0 6 4 N 1015,7 - 0,0
15.10.2018 03:00:00 19,0 9,5 5 3 8 4 NNE 1015,9 - 0,0
15.10.2018 02:00:00 18,8 9,8 5 3 9 5 WSW 1016,3 - 0,0
15.10.2018 01:00:00 18,7 12,9 4 2 10 6 S 1016,3 - 0,0
15.10.2018 00:00:00 18,1 14,2 9 5 12 6 WSW 1016,6 - 0,0
14.10.2018 23:00:00 18,3 15,2 5 3 8 4 WSW 1016,6 - 0,0
14.10.2018 22:00:00 18,6 14,3 3 2 6 4 E 1016,6 - 0,0
14.10.2018 21:00:00 18,6 15,1 5 3 10 5 SW 1016,5 - 0,0
14.10.2018 20:00:00 18,7 14,0 5 3 9 5 SW 1016,6 - 0,0
14.10.2018 19:00:00 18,6 15,7 6 3 10 5 WSW 1016,2 - 0,0
14.10.2018 18:00:00 20,7 16,3 5 3 14 7 SSE 1016,0 - 0,0
14.10.2018 17:00:00 22,1 15,7 8 4 13 7 ESE 1016,0 15 0,0
14.10.2018 16:00:00 22,6 16,2 7 4 16 9 ESE 1016,3 - 0,0
14.10.2018 15:00:00 23,5 15,0 7 4 15 8 SE 1016,6 - 0,0
14.10.2018 14:00:00 23,2 13,4 12 7 18 10 SE 1017,2 12 0,0
14.10.2018 13:00:00 23,6 14,0 8 4 16 9 ESE 1017,9 - 0,0
14.10.2018 12:00:00 23,3 17,1 7 4 14 8 SSE 1018,2 - 0,0
14.10.2018 11:00:00 22,2 16,5 5 3 12 7 S 1018,5 12 0,0
14.10.2018 10:00:00 21,0 16,2 4 2 8 5 S 1018,6 - 0,0
14.10.2018 09:00:00 18,7 15,4 6 3 8 5 W 1018,7 - 0,0
14.10.2018 08:00:00 17,5 13,0 4 2 10 6 W 1018,5 - 0,0
14.10.2018 07:00:00 17,4 12,7 9 5 12 6 NNW 1018,5 - 0,0
14.10.2018 06:00:00 17,2 12,3 10 5 12 6 NNW 1018,8 - 0,0
14.10.2018 05:00:00 17,5 12,6 7 4 13 7 NNW 1018,7 15 0,0
14.10.2018 04:00:00 17,0 11,7 12 6 14 8 NNW 1018,9 - 0,0
14.10.2018 03:00:00 17,0 12,1 5 3 7 4 NNE 1019,3 - 0,0
14.10.2018 02:00:00 17,1 11,6 2 1 8 5 NE 1019,6 - 0,0
14.10.2018 01:00:00 18,3 11,4 8 4 9 5 N 1019,9 - 0,0
14.10.2018 00:00:00 18,1 13,4 0 0 5 3 N 1020,2 - 0,0
13.10.2018 23:00:00 18,6 14,5 4 2 12 7 SW 1020,2 - 0,0
13.10.2018 22:00:00 17,9 14,6 10 5 12 6 SSW 1020,4 - 0,0
13.10.2018 21:00:00 18,3 14,6 10 5 11 6 SW 1020,4 - 0,0
13.10.2018 20:00:00 18,4 14,9 7 4 9 5 SW 1020,7 - 0,0
13.10.2018 19:00:00 19,0 15,9 5 3 6 3 SW 1020,6 - 0,0
13.10.2018 18:00:00 21,5 16,5 3 2 13 7 E 1020,5 - 0,0
13.10.2018 17:00:00 22,6 15,4 8 4 13 7 ENE 1020,6 15 0,0
13.10.2018 16:00:00 23,3 16,1 9 5 18 10 ENE 1020,8 - 0,0
13.10.2018 15:00:00 22,9 15,7 11 6 19 11 E 1021,1 - 0,0
13.10.2018 14:00:00 23,4 17,8 10 5 21 11 E 1021,7 - 0,0
13.10.2018 13:00:00 22,8 17,7 11 6 19 10 ENE 1022,3 - 0,0
13.10.2018 12:00:00 23,3 17,3 12 6 20 11 NE 1022,8 - 0,0
13.10.2018 11:00:00 22,8 16,1 11 6 17 9 ENE 1022,6 - 0,0
13.10.2018 10:00:00 22,0 16,0 6 4 14 7 N 1022,8 - 0,0
13.10.2018 09:00:00 19,7 15,1 12 7 18 10 NNW 1022,9 - 0,0
13.10.2018 08:00:00 18,0 14,5 14 7 22 12 N 1022,6 15 0,0
13.10.2018 07:00:00 18,0 14,3 17 9 23 13 NNW 1022,4 - 0,0
13.10.2018 06:00:00 18,1 11,6 19 10 22 12 NNW 1022,3 - 0,0
13.10.2018 05:00:00 19,2 10,7 16 8 19 10 NNW 1022,3 - 0,0
13.10.2018 04:00:00 19,2 10,7 11 6 15 8 NW 1022,2 - 0,0
13.10.2018 03:00:00 20,7 11,1 3 1 8 4 WNW 1022,8 - 0,0
13.10.2018 02:00:00 20,1 11,0 7 4 19 11 W 1022,9 - 0,0
13.10.2018 01:00:00 19,1 11,9 16 9 19 10 NNW 1023,4 - 0,0
13.10.2018 00:00:00 18,4 13,3 13 7 21 11 NNW 1023,9 - 0,0
12.10.2018 23:00:00 19,9 14,5 5 3 16 9 N 1024,0 - 0,0
12.10.2018 22:00:00 19,0 14,9 14 8 19 11 NNW 1024,0 - 0,0
12.10.2018 21:00:00 19,0 15,3 16 9 22 12 NNW 1024,0 - 0,0
12.10.2018 20:00:00 19,2 15,7 15 8 22 12 NNW 1023,7 - 0,0
12.10.2018 19:00:00 19,9 17,1 14 7 16 9 NNW 1023,1 - 0,0
12.10.2018 18:00:00 21,3 17,3 9 5 17 9 N 1022,8 - 0,0
12.10.2018 17:00:00 23,6 16,9 12 7 22 12 NNE 1022,7 20 0,0
12.10.2018 16:00:00 24,8 17,5 15 8 24 13 NNE 1022,9 - 0,0
12.10.2018 15:00:00 25,7 16,8 16 9 25 14 NNE 1023,0 - 0,0
12.10.2018 14:00:00 25,9 16,4 16 9 26 14 NNE 1023,4 25 0,0
12.10.2018 13:00:00 25,7 18,1 19 10 28 15 NNE 1023,8 - 0,0
12.10.2018 12:00:00 25,6 17,8 17 9 24 13 NNE 1024,1 - 0,0
12.10.2018 11:00:00 24,3 17,5 12 7 18 10 NNE 1024,0 - 0,0
12.10.2018 10:00:00 22,0 16,9 9 5 16 9 N 1023,7 - 0,0
12.10.2018 09:00:00 19,7 16,3 10 5 14 8 NW 1022,9 - 0,0
12.10.2018 08:00:00 19,0 16,0 14 8 17 9 NW 1022,3 - 0,0
12.10.2018 07:00:00 18,0 15,4 13 7 18 10 NNW 1022,1 - 0,0
12.10.2018 06:00:00 18,0 15,6 14 7 18 10 NNW 1021,9 - 0,0
12.10.2018 05:00:00 17,9 16,2 16 8 19 11 NNW 1021,5 15 0,0
12.10.2018 04:00:00 17,7 16,0 12 7 16 8 NNW 1021,3 - 0,0
12.10.2018 03:00:00 18,6 16,2 10 5 14 8 N 1021,0 - 0,0
12.10.2018 02:00:00 19,3 16,3 11 6 15 8 NW 1021,0 - 0,0
12.10.2018 01:00:00 19,1 17,2 5 3 11 6 NW 1020,9 - 0,2
12.10.2018 00:00:00 19,5 17,5 6 4 14 7 NW 1020,9 - 0,0
11.10.2018 23:00:00 19,2 17,3 7 4 16 9 NNW 1020,7 - 0,0
11.10.2018 22:00:00 19,4 17,4 5 3 18 10 NW 1020,5 - 0,0
11.10.2018 21:00:00 19,2 17,5 12 6 31 17 E 1020,0 - 0,0
11.10.2018 20:00:00 19,1 17,8 22 12 40 22 E 1019,4 15 0,0
11.10.2018 19:00:00 19,1 17,6 24 13 36 19 E 1019,1 - 0,0
11.10.2018 18:00:00 19,2 17,7 18 10 29 15 E 1018,6 - 0,0
11.10.2018 17:00:00 19,2 17,7 17 9 29 16 ESE 1018,3 - 0,0
11.10.2018 16:00:00 19,3 18,3 16 9 35 19 ESE 1018,0 - 0,0
11.10.2018 15:00:00 19,8 18,3 8 5 21 12 SSE 1017,8 - 0,0
11.10.2018 14:00:00 19,4 18,4 10 5 21 12 S 1018,1 10 0,0
11.10.2018 13:00:00 18,7 18,0 16 9 49 26 S 1018,3 - 0,6
11.10.2018 12:00:00 18,7 18,2 23 13 42 23 SSE 1018,2 - 1,6
11.10.2018 11:00:00 18,9 18,2 4 2 21 11 WSW 1017,8 - 2,2
11.10.2018 10:00:00 18,0 17,7 14 8 26 14 WSW 1017,8 - 1,8
11.10.2018 09:00:00 18,4 17,7 17 9 41 22 SSW 1017,5 - 0,0
11.10.2018 08:00:00 18,8 18,1 18 10 27 15 ESE 1017,0 - 0,2

tt = temperature
td = dewpoint
ff = wind speed
fx = gusts
dd = wind direction
ppp = reduced air pressure
vv = visibility
rr = precipitation

Next stations